Flag for Norway Weather past 2 weeks in Ålesund, Norway

Now
36 °F

Passing clouds.


Feels Like: 32 °F
Forecast: 33 / 43 °F
Wind: 5 mph from West

Location: Alesund / Vigra

Current Time: Mar 26, 2015 at 9:06:26 PM

Latest Report: Mar 26, 2015 at 8:20 PM


Visibility: N/A

Pressure: 29.65 "Hg

Humidity: 70%

Dew point: 27 °F

Location of ÅlesundLocation

Historic Weather in Ålesund — Graph

°F

Ålesund temperature yesterday

Maximum temperature yesterday: 46 °F (at 1:20 PM)
Minimum temperature yesterday: 36 °F (at 2:50 AM)
Average temperature yesterday: 40 °F

Past Weeks' High & Low Weather Summary

 TemperatureHumidityPressure
High54 °F (Mar 16, 1:50 PM)100% (Mar 19, 8:50 PM)30.77 "Hg (Mar 19, 8:50 PM)
Low30 °F (Mar 14, 8:50 PM)25% (Mar 11, 8:50 PM)29.21 "Hg (Mar 23, 9:50 AM)
Average41 °F68%30.23 "Hg
* Reported Mar 11 7:20 PM — Mar 26 7:50 PM, Ålesund, Weather by CustomWeather, © 2015

Note: Actual official high and low records may vary slightly from our data, if they occured in-between our weather recording intervals... More about our weather records

Advertising

Ålesund weather history for previous 24 hours

 ConditionsComfort  
Time TempWeatherWind HumidityBarometerVisibility
7:50 PM
Thu, Mar 26
36 °FPassing clouds.6 mph70%29.65 "HgN/A
7:20 PM37 °FPassing clouds.5 mph65%29.65 "HgN/A
6:50 PM37 °FScattered clouds.8 mph65%29.65 "HgN/A
6:20 PM37 °FScattered clouds.9 mph65%29.62 "HgN/A
5:50 PM41 °FScattered clouds.10 mph49%29.62 "HgN/A
5:20 PM41 °FScattered clouds.7 mph45%29.62 "HgN/A
4:50 PM41 °FScattered clouds.9 mph49%29.62 "HgN/A
4:20 PM43 °FScattered clouds.15 mph46%29.59 "HgN/A
3:50 PM41 °FPartly sunny.9 mph42%29.59 "HgN/A
3:20 PM41 °FPartly sunny.6 mph45%29.59 "HgN/A
2:50 PM41 °FPartly sunny.6 mph45%29.59 "HgN/A
2:20 PM41 °FPartly sunny.13 mph49%29.59 "HgN/A
1:50 PM43 °FBroken clouds.15 mph46%29.59 "HgN/A
12:20 PM41 °FPartly sunny.18 mph45%29.62 "HgN/A
11:50 AM39 °FPartly sunny.16 mph48%29.62 "HgN/A
11:20 AM39 °FScattered clouds.13 mph52%29.62 "HgN/A
10:50 AM39 °FBroken clouds.17 mph48%29.65 "HgN/A
10:20 AM39 °FBroken clouds.21 mph52%29.65 "HgN/A
9:50 AM41 °FScattered clouds.21 mph49%29.65 "HgN/A
9:20 AM41 °FScattered clouds.20 mph45%29.68 "HgN/A
8:50 AM41 °FSunny.21 mph45%29.68 "Hg10 mi
8:20 AM41 °FSunny.21 mph49%29.68 "Hg10 mi
7:50 AM41 °FPassing clouds.13 mph49%29.71 "HgN/A
7:20 AM41 °FSunny.15 mph49%29.71 "Hg10 mi
6:50 AM39 °FSunny.16 mph52%29.74 "Hg10 mi
6:20 AM39 °FSunny.15 mph52%29.77 "Hg10 mi
5:50 AM39 °FClear.14 mph48%29.77 "Hg10 mi
5:20 AM39 °FChilly.13 mph52%29.77 "HgN/A
4:50 AM39 °FChilly.16 mph52%29.80 "HgN/A
4:20 AM39 °FChilly.14 mph52%29.80 "HgN/A
3:50 AM39 °FChilly.14 mph52%29.83 "HgN/A
3:20 AM39 °FChilly.13 mph52%29.83 "HgN/A
2:50 AM39 °FChilly.14 mph56%29.86 "HgN/A
2:20 AM39 °FChilly.14 mph56%29.86 "HgN/A
1:50 AM39 °FChilly.15 mph61%29.86 "HgN/A
1:20 AM37 °FChilly.12 mph65%29.89 "HgN/A
12:50 AM37 °FChilly.9 mph65%29.89 "HgN/A
12:20 AM37 °FChilly.8 mph65%29.89 "HgN/A
11:50 PM
Wed, Mar 25
39 °FChilly.8 mph61%29.92 "HgN/A
11:20 PM37 °FChilly.9 mph65%29.92 "HgN/A
10:50 PM36 °FClear.7 mph75%29.92 "Hg10 mi
10:20 PM37 °FClear.3 mph87%29.92 "Hg10 mi
9:50 PM36 °FClear.6 mph87%29.92 "Hg10 mi
9:20 PM37 °FPassing clouds.5 mph87%29.92 "HgN/A
Weather by CustomWeather, © 2015

See weather overviewHow to use our weather pages